Regional Weather Roundup
Issued by NWS

Home | Current Version | Previous Version | Graphics & Text | Print | Product List | Glossary Off
Versions: 1 2 3 4 5 6 7 8 9 10 11 12 13 14 15 16 17 18 19 20 21 22 23 24 25 26 27 28 29 30 31 32 33 34 35 36 37 38 39 40 41 42 43 44 45 46 47 48 49 50

000
ASUS43 KDMX 050703
RWRIA

WEATHER ROUNDUP FOR IOWA
NATIONAL WEATHER SERVICE DES MOINES IA
200 AM CDT THU MAY 05 2016

NOTE: "FAIR" INDICATES FEW OR NO CLOUDS BELOW 12,000 FEET WITH NO
SIGNIFICANT WEATHER AND/OR OBSTRUCTIONS TO VISIBILITY.

* - THESE STATIONS ARE NOT NWS STATIONS...THUS NOT UNDER NWS
QUALITY CONTROL.  THEY ALSO DO NOT REPORT WEATHER SUCH
AS PRECIPITATION OR FOG.

IAZ001>003-012>014-020>022-031>034-043>046-050800-
   NORTHWEST IOWA

CITY           SKY/WX    TMP DP  RH WIND       PRES   REMARKS
CARROLL *      PTCLDY    46  39  76 NW5       30.01S
CHEROKEE *     CLEAR     41  40  94 CALM      30.02S
DENISON *      CLEAR     45  39  81 SE3       30.00S
LE MARS *      PTCLDY    45  41  87 CALM      30.04S
ORANGE CITY *  CLEAR     50  36  57 CALM      30.03S
SHELDON *      PTCLDY    45  36  70 CALM      30.01S
SIOUX CITY     CLEAR     44  38  79 W7        30.03S
SPENCER        CLEAR     43  37  79 CALM      30.02R
STORM LAKE *   CLEAR     52  36  54 NE7       30.03R
$$

IAZ055>058-069>071-079>083-090>094-050800-
   SOUTHWEST IOWA

CITY           SKY/WX    TMP DP  RH WIND       PRES   REMARKS
ATLANTIC *     CLEAR     46  41  81 N6        30.01S
AUDUBON *      CLEAR     43  37  81 CALM      30.02S
CLARINDA *       N/A     45  43  93 MISG      30.02F
COUNCIL BLFS * CLEAR     54  39  58 N6        30.02S
CRESTON *      CLEAR     48  39  71 N8        30.01S
HARLAN  *      CLEAR     46  41  81 CALM      30.05S
LAMONI         CLEAR     48  38  68 NW10      29.99R
RED OAK *      CLEAR     46  41  81 CALM      30.01F
SHENANDOAH *   CLEAR     48  43  81 CALM      30.03R
$$

IAZ047>049-059>061-072>074-084-050800-
   CENTRAL IOWA

CITY           SKY/WX    TMP DP  RH WIND       PRES   REMARKS
AMES           CLEAR     44  35  70 NW3       29.99S
ANKENY *       CLEAR     46  39  76 CALM      29.99S
BOONE *        CLEAR     50  34  53 NW3       29.99S
CHARITON *     CLEAR     50  37  62 NW6       29.99R
DES MOINES     CLEAR     48  37  65 NW5       29.99S
GRINNELL*      CLEAR     45  32  61 N7        29.98S
KNOXVILLE *    CLEAR     46  36  66 NW6       29.97S
MARSHALLTOWN   CLEAR     44  31  60 N7        29.98R
NEWTON *       CLEAR     50  30  46 N7        29.98R
PELLA *        CLEAR     44  33  65 N3        29.99S
PERRY *          N/A     48  37  66 N3        30.00S
$$

IAZ004>006-015-016-023>025-035-036-050800-
   NORTH CENTRAL IOWA

CITY           SKY/WX    TMP DP  RH WIND       PRES   REMARKS
ALGONA *       CLEAR     48  34  57 NW5       30.01S
CLARION *      CLEAR     39  30  70 NW3       30.00S
ESTHERVILLE    CLEAR     43  36  76 NW5       30.01S
FORT DODGE *   CLEAR     41  36  81 CALM      30.00S
MASON CITY     CLEAR     39  28  64 NE6       30.01R WCI  35
FOREST CITY *    N/A     39  34  81 CALM      30.00S
WEBSTER CITY * CLEAR     43  32  65 N5        29.98S
IOWA FALLS *     N/A     43  32  65 W3        30.00S
$$

IAZ007>011-017>019-026>030-037>042-050>054-066-050800-
   NORTHEAST IOWA

CITY           SKY/WX    TMP DP  RH WIND       PRES   REMARKS
CEDAR RAPIDS   CLEAR     45  32  60 N6        29.96S
CHARLES CITY * CLEAR     45  27  49 NE3       30.00S
CLINTON *      CLEAR     41  35  79 N9        29.95R
DECORAH *      CLEAR     45  25  45 CALM      29.98S
DUBUQUE        CLEAR     45  32  60 N12       29.96R
MONTICELLO *   CLEAR     41  32  70 NW5       29.96S
OELWEIN *      CLEAR     43  28  56 N6        29.99R
WATERLOO       CLEAR     43  30  60 CALM      29.98S
$$

IAZ064-065-067-068-078-050800-
   EAST CENTRAL IOWA

CITY           SKY/WX    TMP DP  RH WIND       PRES   REMARKS
DAVENPORT      CLEAR     43  34  70 NW8       29.94S
IOWA CITY      CLEAR     48  31  51 N7        29.97S
MT. PLEASANT * CLEAR     48  37  66 N9        29.95R
MUSCATINE *    CLEAR     45  34  65 N6        29.96R
QUAD CITIES    CLEAR     50  35  56 NW3       29.93R
$$

IAZ062-063-075>077-085>089-095>099-050800-
   SOUTHEAST IOWA

CITY           SKY/WX    TMP DP  RH WIND       PRES   REMARKS
BURLINGTON     CLEAR     48  34  58 N12       29.93R
FAIRFIELD *    CLEAR     43  34  70 N8        29.95S
FORT MADISON * CLEAR     45  36  70 N5        29.95R
KEOKUK *       CLEAR     50  36  57 NW7       29.93R
OSKALOOSA *      N/A     45  34  65 N7        29.97S
OTTUMWA        CLEAR     44  33  65 N9        29.96S
WASHINGTON *   CLEAR     45  36  70 N9        29.97R
$$

ABBREVIATIONS USED IN REMARKS
   TC - TEMPERATURES IN CELSIUS
  WCI - WIND CHILL INDEX
   HX - HEAT INDEX
  VSB - VISIBILITY
$$




USA.gov is the U.S. government's official web portal to all federal, state and local government web resources and services.